#timestamp,LO_Frequency,Hit,StdDev 
1655100015.6,286047001.6,N
1655100035.4,286047002.6,N
1655100055.2,286047002.3,N
1655100075.1,286047000.7,N
1655100076.0,286047000.7,N
1655100095.8,286046998.3,N
1655100115.6,286047001.0,N
1655100135.5,286047000.9,N
1655100155.3,286047000.5,N
1655100175.2,286046999.8,N
1655100195.0,286047000.0,N
1655100195.9,286047000.0,N
1655100215.7,286047000.2,N
1655100235.6,286047002.8,N
1655100255.4,286047000.1,N
1655100275.3,286047002.8,N
1655100295.1,286047002.3,N
1655100315.8,286047001.9,N
1655100335.7,286047001.7,N
1655100355.5,286047001.3,N
1655100375.4,286047001.9,N
1655100395.2,286047002.3,N
1655100415.0,286047002.7,N
1655100415.9,286047002.7,N
1655100435.8,286047002.0,N
1655100455.6,286046999.7,N
1655100475.4,286046999.9,N
1655100495.3,286047002.4,N
1655100515.1,286046998.2,N
1655100535.9,286047000.5,N
1655100555.7,286047001.0,N
1655100575.5,286047000.3,N
1655100595.4,286047000.8,N
1655100615.2,286047002.3,N
1655100635.0,286047000.3,N
1655100635.9,286047000.3,N
1655100655.8,286047000.5,N
1655100675.6,286046999.9,N
1655100695.5,286047002.8,N
1655100715.3,286047000.0,N
1655100735.1,286047000.6,N
1655100755.9,286047000.8,N
1655100775.7,286047000.6,N
1655100795.5,286046999.7,N
1655100815.4,286047002.4,N
1655100835.2,286047002.5,N
1655100855.1,286047001.6,N
1655100856.0,286047001.6,N
1655100875.8,286046999.8,N
1655100895.7,286047002.6,N
1655100915.5,286047002.3,N
1655100935.3,286047002.0,N
1655100955.2,286047002.3,N
1655100975.9,286047002.2,N
1655100995.7,286047001.7,N
1655101015.6,286047002.7,N
1655101035.4,286046999.7,N
1655101055.3,286047002.5,N
1655101075.1,286047001.9,N
1655101095.8,286047001.9,N
1655101115.7,286047001.6,N
1655101135.5,286047002.1,N
1655101155.4,286047003.1,Y
1655101175.2,286046999.7,P
1655101195.0,286047002.8,P
1655101195.9,286047002.8,N
1655101215.8,286047000.2,N
1655101235.6,286046999.7,N
1655101255.5,286047000.1,N
1655101275.3,286046998.2,N
1655101295.1,286046998.1,N
1655101315.9,286046998.2,N
1655101335.7,286047000.3,N
1655101355.5,286047002.2,N
1655101375.4,286046999.8,N
1655101395.2,286047000.0,N
1655101415.1,286046998.2,N
1655101416.0,286046998.2,N
1655101435.8,286046998.6,N
1655101455.7,286047000.0,N
1655101475.5,286046999.9,N
1655101495.3,286046999.9,N
1655101515.2,286047000.0,N
1655101535.0,286047002.2,N
1655101535.9,286047002.2,N
1655101555.7,286047000.6,N
1655101575.6,286047000.1,N
1655101595.4,286047002.6,N
1655101615.3,286047000.2,N
1655101635.1,286047002.4,N
1655101636.0,286047002.4,N
1655101655.8,286046999.8,N
1655101675.7,286047000.3,N
1655101695.5,286047000.9,N
1655101715.3,286046998.5,N
1655101735.2,286047000.3,N
1655101755.0,286047000.1,N
1655101755.9,286047000.1,N
1655101775.8,286047000.1,N
1655101795.6,286046999.7,N
1655101815.4,286047002.0,N
1655101835.3,286047003.9,Y
1655101855.1,286047004.4,P
1655101875.9,286047001.8,N
1655101895.7,286047004.0,N
1655101915.5,286047004.0,N
1655101935.4,286047001.4,N
1655101955.2,286047001.7,N
1655101975.1,286047002.6,N
1655101976.0,286047002.6,N
1655101995.8,286047002.8,N
1655102015.6,286047002.4,N
1655102035.5,286047000.4,N
1655102055.3,286046999.3,N
1655102075.1,286046998.1,N
1655102095.9,286047001.0,N
1655102115.7,286047002.8,N
1655102135.6,286047000.3,N
1655102155.4,286047000.2,N
1655102175.2,286046999.7,N
1655102195.1,286047004.3,N
1655102196.0,286047004.3,N
1655102215.8,286047001.8,N
1655102235.6,286047004.0,N
1655102255.5,286047001.3,N
1655102275.3,286047001.3,N
1655102295.2,286047003.6,N
1655102315.9,286047003.3,N
1655102335.7,286047004.2,N
1655102355.6,286047004.0,N
1655102375.4,286047004.1,N
1655102395.2,286047004.3,N
1655102415.1,286047002.0,N
1655102416.0,286047002.0,N
1655102435.8,286047001.4,N
1655102455.7,286047003.0,N
1655102475.5,286047004.2,N
1655102495.3,286047003.1,N
1655102515.2,286047003.4,N
1655102535.0,286047003.5,N
1655102535.9,286047003.5,N
1655102555.7,286047001.3,N
1655102575.6,286047003.8,N
1655102595.4,286047003.7,N
1655102615.3,286047004.4,N
1655102635.1,286047004.4,Y
1655102655.8,286047000.8,P
1655102675.7,286047000.8,N
1655102695.5,286047001.2,N
1655102715.4,286046998.9,N
1655102735.2,286046999.2,N
1655102755.0,286046998.0,N
1655102755.9,286046998.0,N
1655102775.8,286046997.1,N
1655102795.6,286046998.3,N
1655102815.4,286046997.3,N
1655102835.3,286046996.0,N
1655102855.1,286046994.6,N
1655102875.9,286046994.1,N
1655102895.7,286046994.5,N
1655102915.5,286046994.2,N
1655102935.4,286046994.7,N
1655102955.2,286046991.8,Y
1655102975.0,286046996.3,P
1655102975.9,286046996.3,P
1655102995.8,286046996.4,P
1655103015.6,286046993.4,Y
1655103035.5,286046998.7,P
1655103055.3,286046998.7,N
1655103075.1,286046999.0,N
1655103095.9,286047001.1,N
1655103115.7,286047000.1,N
1655103135.5,286047000.3,N
1655103155.4,286047001.1,N
1655103175.2,286047000.5,N
1655103195.1,286047001.1,N
1655103196.0,286047001.1,N
1655103215.8,286046998.1,N
1655103235.6,286046999.1,N
1655103255.5,286046999.2,N
1655103275.3,286046998.1,N
1655103295.2,286046999.0,N
1655103315.9,286046997.0,N
1655103335.7,286046996.5,N
1655103355.6,286046996.5,N
1655103375.4,286046997.2,N
1655103395.2,286046997.3,N
1655103415.1,286046997.8,N
1655103416.0,286046997.8,N
1655103435.8,286046996.6,N
1655103455.7,286046996.8,N
1655103475.5,286046994.9,Y
1655103495.3,286046997.8,P
1655103515.2,286046997.5,P
1655103535.0,286046995.3,P
1655103535.9,286046995.3,Y
1655103555.7,286046998.4,P
1655103575.6,286046998.3,P
1655103595.4,286046998.1,P
